TimeEST,TemperatureF,Dew PointF,Humidity,Sea Level PressureIn,VisibilityMPH,Wind Direction,Wind SpeedMPH,Gust SpeedMPH,PrecipitationIn,Events,Conditions,WindDirDegrees,DateUTC
12:53 AM,28.0,21.9,78,30.51,10.0,Calm,Calm,-,N/A,,Clear,0,2012-11-14 05:53:00
1:53 AM,26.1,21.9,84,30.51,10.0,Calm,Calm,-,N/A,,Clear,0,2012-11-14 06:53:00
2:53 AM,26.1,21.9,84,30.50,10.0,ENE,6.9,-,N/A,,Clear,70,2012-11-14 07:53:00
3:53 AM,26.1,21.0,81,30.52,10.0,Calm,Calm,-,N/A,,Clear,0,2012-11-14 08:53:00
4:53 AM,26.1,21.9,84,30.51,10.0,NE,4.6,-,N/A,,Clear,50,2012-11-14 09:53:00
5:53 AM,25.0,21.0,85,30.52,10.0,ENE,5.8,-,N/A,,Clear,60,2012-11-14 10:53:00
6:53 AM,26.1,21.9,84,30.52,10.0,ENE,8.1,-,N/A,,Clear,70,2012-11-14 11:53:00
7:53 AM,28.9,23.0,78,30.52,10.0,ENE,5.8,-,N/A,,Clear,70,2012-11-14 12:53:00
8:53 AM,30.9,25.0,79,30.53,9.0,East,3.5,-,N/A,,Clear,80,2012-11-14 13:53:00
9:53 AM,34.0,27.0,75,30.53,10.0,East,8.1,-,N/A,,Clear,80,2012-11-14 14:53:00
10:53 AM,37.0,27.0,67,30.53,10.0,East,8.1,-,N/A,,Clear,100,2012-11-14 15:53:00
11:53 AM,-9999,-9999,N/A,30.49,-9999.0,North,-9999.0,-,N/A,,Unknown,0,2012-11-14 16:53:00
12:53 PM,39.9,26.1,58,30.48,10.0,ESE,10.4,-,N/A,,Clear,110,2012-11-14 17:53:00
1:53 PM,43.0,27.0,53,30.45,10.0,ESE,6.9,-,N/A,,Clear,110,2012-11-14 18:53:00
2:53 PM,43.0,27.0,53,30.43,10.0,ENE,6.9,-,N/A,,Clear,60,2012-11-14 19:53:00
3:53 PM,42.1,28.0,58,30.43,10.0,NE,5.8,-,N/A,,Clear,50,2012-11-14 20:53:00
4:53 PM,42.1,28.0,58,30.42,10.0,NNE,5.8,-,N/A,,Clear,30,2012-11-14 21:53:00
5:53 PM,39.0,28.0,65,30.42,10.0,NNE,4.6,-,N/A,,Clear,30,2012-11-14 22:53:00
6:53 PM,34.0,28.0,79,30.41,10.0,East,3.5,-,N/A,,Clear,80,2012-11-14 23:53:00
7:53 PM,34.0,27.0,75,30.40,10.0,ENE,6.9,-,N/A,,Clear,70,2012-11-15 00:53:00
8:53 PM,34.0,26.1,73,30.40,10.0,ENE,4.6,-,N/A,,Clear,60,2012-11-15 01:53:00
9:53 PM,32.0,27.0,82,30.39,9.0,East,5.8,-,N/A,,Clear,100,2012-11-15 02:53:00
10:53 PM,30.9,26.1,82,30.41,8.0,NNW,4.6,-,N/A,,Clear,330,2012-11-15 03:53:00
11:53 PM,30.9,26.1,82,30.37,8.0,NNE,4.6,-,N/A,,Clear,30,2012-11-15 04:53:00